Flag for Morocco Weather past 2 weeks in Marrakech, Morocco

Now
73 °F

Passing clouds.


Feels Like: 75 °F
Forecast: 71 / 95 °F
Wind: 6 mph from Southwest

Location: Marrakech Airport

Current Time: Aug 30, 2014 at 10:03:01 AM

Latest Report: Aug 30, 2014 at 9:30 AM


Visibility: N/A

Pressure: 30.07 "Hg

Humidity: 74%

Dew point: 64 °F

Location of MarrakechLocation

Historic Weather in Marrakech — Graph

°F

Marrakech temperature yesterday

Maximum temperature yesterday: 102 °F (at 5:00 PM)
Minimum temperature yesterday: 79 °F (at 6:30 AM)
Average temperature yesterday: 89 °F

Past Weeks' High & Low Weather Summary

 TemperatureHumidityPressure
High108 °F (Aug 27, 3:30 PM)94% (Aug 18, 7:00 AM)30.07 "Hg (Aug 18, 7:00 AM)
Low66 °F (Aug 18, 7:00 AM)12% (Aug 16, 7:00 PM)29.83 "Hg (Aug 17, 4:30 PM)
Average86 °F43%29.99 "Hg
* Reported Aug 15 9:00 AM — Aug 30 9:00 AM, Marrakech, Weather by CustomWeather, © 2014

Note: Actual official high and low records may vary slightly from our data, if they occured in-between our weather recording intervals... More about our weather records

Advertising

Marrakech weather history for previous 24 hours

 ConditionsComfort  
Time TempWeatherWind HumidityBarometerVisibility
9:00 AM
Aug 30
72 °FSunny.7 mph78%30.04 "Hg10 mi
8:30 AM70 °FSunny.10 mph83%30.04 "Hg10 mi
8:00 AM70 °FSunny.9 mph83%30.04 "Hg10 mi
7:30 AM70 °FSunny.8 mph78%30.01 "Hg10 mi
7:00 AM70 °FClear.8 mph78%30.01 "Hg10 mi
6:30 AM72 °FClear.7 mph73%30.01 "Hg10 mi
6:00 AM72 °FClear.9 mph69%30.01 "Hg10 mi
5:30 AM72 °FMild.8 mph69%29.98 "HgN/A
5:00 AM73 °FPassing clouds.9 mph61%29.98 "HgN/A
4:30 AM73 °FPassing clouds.7 mph61%29.98 "HgN/A
4:00 AM75 °FPassing clouds.8 mph57%29.98 "HgN/A
3:30 AM75 °FMild.7 mph54%29.98 "HgN/A
3:00 AM75 °FMild.5 mph54%30.01 "HgN/A
2:30 AM77 °FWarm.6 mph51%30.01 "HgN/A
2:00 AM79 °FPassing clouds.6 mph48%30.01 "HgN/A
1:30 AM81 °FPassing clouds.3 mph45%30.01 "HgN/A
1:00 AM82 °FPassing clouds.3 mph40%30.01 "HgN/A
12:30 AM82 °FPassing clouds.3 mph40%30.01 "HgN/A
12:00 AM84 °FPassing clouds.6 mph37%30.04 "HgN/A
11:30 PM
Aug 29
84 °FPassing clouds.3 mph40%30.04 "HgN/A
11:00 PM86 °FPassing clouds.5 mph38%30.04 "HgN/A
10:30 PM86 °FPassing clouds.9 mph35%30.01 "HgN/A
10:00 PM88 °FPassing clouds.12 mph33%30.01 "HgN/A
8:00 PM95 °FPassing clouds.10 mph26%29.95 "HgN/A
7:00 PM99 °FScattered clouds.7 mph24%29.92 "HgN/A
6:00 PM100 °FScattered clouds.5 mph20%29.92 "HgN/A
5:30 PM100 °FScattered clouds.8 mph21%29.92 "HgN/A
5:00 PM102 °FScattered clouds.6 mph20%29.92 "HgN/A
4:30 PM100 °FPartly sunny.8 mph22%29.95 "HgN/A
4:00 PM99 °FPartly sunny.7 mph24%29.95 "HgN/A
3:30 PM99 °FPartly sunny.7 mph25%29.95 "HgN/A
3:00 PM95 °FPartly sunny.6 mph30%30.01 "HgN/A
2:30 PM93 °FPartly sunny.6 mph32%29.98 "HgN/A
2:00 PM93 °FPartly sunny.6 mph32%29.98 "HgN/A
1:30 PM95 °FPartly sunny.9 mph30%30.01 "HgN/A
1:00 PM95 °FPartly sunny.7 mph28%29.98 "HgN/A
12:30 PM95 °FPartly sunny.8 mph30%30.01 "HgN/A
12:00 PM93 °FPartly sunny.5 mph30%30.01 "HgN/A
11:30 AM93 °FPartly sunny.5 mph30%30.01 "HgN/A
11:00 AM91 °FPartly sunny.5 mph32%30.01 "HgN/A
10:30 AM91 °FPartly sunny.5 mph32%30.01 "HgN/A
10:00 AM90 °FPartly sunny.2 mph36%30.01 "HgN/A
Weather by CustomWeather, © 2014

See weather overviewHow to use our weather pages